Tracking 28794 objects as of 22-Apr-2024
HD Live streaming from Space Station
objects crossing your sky now

ESAIL

Track ESAIL now!
10-day predictions
ESAIL is classified as:


NORAD ID: 46273
Int'l Code: 2020-061B
Perigee: 462.3 km
Apogee: 465.9 km
Inclination: 97.3 °
Period: 93.7 minutes
Semi major axis: 6835 km
RCS: Unknown
Launch date: September 3, 2020
Source: Canada (CA)
Launch site: FRENCH GUIANA (FRGUI)

Uplink (MHz):
Downlink (MHz):
Beacon (MHz):
Mode:
Call sign:
Status: Unknown

Your satellite tracking list
Your tracking list is empty




NASA's NSSDC Master Catalog

Two Line Element Set (TLE):
1 46273U 20061B   24113.19176482  .00047566  00000-0  13381-2 0  9996
2 46273  97.3067 181.6835 0002623 253.5728 106.5228 15.36333385201651
Source of the keplerian elements: AFSPC